Home   Weather   Teófilo Otoni   Past weeks

Flag for Brazil Past Weather in Teófilo Otoni, Minas Gerais, Brazil — Yesterday and Last 2 Weeks

Now
63 °F

Sunny.


Feels Like: 63 °F
Forecast: 60 / 80 °F
Wind: 13 mph from East

Location: Belo Horizonte Airport

Current Time: Aug 18, 2017 at 8:07:10 am

Latest Report: Aug 18, 2017 at 7:00 am


Visibility: 10 mi

Pressure: 30.12 "Hg

Humidity: 73%

Dew Point: 54 °F

Location of Teófilo OtoniLocation

Past Weather in Teófilo Otoni — Graph

°F

Teófilo Otoni Temperature Yesterday

Maximum temperature yesterday: 82 °F (at 3:00 pm)
Minimum temperature yesterday: 61 °F (at 3:00 am)
Average temperature yesterday: 70 °F

High & Low Weather Summary for the Past Weeks

 TemperatureHumidityPressure
High86 °F (Aug 10, 1:00 pm)94% (Aug 7, 2:00 am)30.27 "Hg (Aug 7, 2:00 am)
Low50 °F (Aug 3, 6:00 am)20% (Aug 10, 3:00 pm)30.04 "Hg (Aug 3, 3:00 pm)
Average68 °F55%30.13 "Hg
* Reported Aug 3 6:00 am — Aug 18 6:00 am, Teófilo Otoni. Weather by CustomWeather, © 2017

Note: Actual official high and low records may vary slightly from our data, if they occured in-between our weather recording intervals... More about our weather records

Advertising

Teófilo Otoni Weather History for the Previous 24 Hours

Scroll right to see more
 ConditionsComfort  
Time TempWeatherWind HumidityBarometerVisibility
6:00 am
Fri, Aug 18
55 °FClear.12 mph94%30.09 "Hg10 mi
5:00 am64 °FClear.9 mph64%30.09 "Hg10 mi
4:00 am64 °FClear.8 mph64%30.09 "Hg10 mi
3:00 am66 °FClear.9 mph60%30.09 "Hg10 mi
2:00 am66 °FClear.10 mph60%30.09 "Hg10 mi
1:00 am68 °FClear.9 mph56%30.15 "Hg10 mi
12:00 am68 °FClear.9 mph56%30.12 "Hg10 mi
11:00 pm
Thu, Aug 17
68 °FClear.10 mph56%30.12 "Hg10 mi
10:00 pm70 °FClear.12 mph53%30.12 "Hg10 mi
9:00 pm72 °FClear.9 mph44%30.12 "Hg10 mi
8:00 pm73 °FClear.9 mph44%30.09 "Hg10 mi
7:00 pm75 °FClear.10 mph41%30.07 "Hg10 mi
6:00 pm77 °FClear.12 mph39%30.07 "Hg10 mi
5:00 pm79 °FSunny.8 mph34%30.04 "Hg10 mi
4:00 pm81 °FSunny.6 mph32%30.04 "Hg10 mi
3:00 pm82 °FSunny.6 mph30%30.04 "Hg10 mi
2:00 pm81 °FSunny.7 mph34%30.04 "Hg10 mi
1:00 pm79 °FSunny.3 mph37%30.07 "Hg10 mi
12:00 pm77 °FSunny.3 mph36%30.09 "Hg10 mi
11:00 am75 °FSunny.5 mph39%30.12 "Hg10 mi
10:00 am72 °FSunny.No wind47%30.15 "Hg10 mi
9:00 am68 °FSunny.3 mph53%30.15 "Hg10 mi
8:00 am63 °FSunny.3 mph64%30.12 "Hg10 mi
Weather by CustomWeather, © 2017

See weather overviewHow to use our weather pages